Location: Unspecified
(0.0000°N, 0.0000°E)
Time: 11:18:38
(UTC+00:00)

Vanguard 1 - Pass Details

Date: 22 November 2019
Orbit: 651 x 3832 km, 34.3° (Epoch: 13 December)

Event Time Altitude Azimuth Distance (km) Brightness Sun altitude
Rises 20:35:40 0° 256° (WSW) 4,012 14.1 -39.2°
Reaches altitude 10° 20:39:07 10° 237° (WSW) 3,458 13.5 -40.0°
Maximum altitude 20:45:09 19° 195° (SSW) 3,514 13.1 -41.4°
Drops below altitude 10° 20:53:45 10° 155° (SSE) 5,144 13.7 -43.3°
Sets 21:01:00 0° 140° (SE) 6,841 14.3 -44.8°
